Year,Month,Day,Hour,Minute,Value (Times are PST for temperature in C)
2015,08,07,00,00,17.60
2015,08,07,00,01,17.60
2015,08,07,00,02,17.60
2015,08,07,00,03,17.60
2015,08,07,00,04,17.60
2015,08,07,00,05,17.60
2015,08,07,00,06,17.60
2015,08,07,00,07,17.60
2015,08,07,00,08,17.60
2015,08,07,00,09,17.60
2015,08,07,00,10,17.60
2015,08,07,00,11,17.60
2015,08,07,00,12,17.50
2015,08,07,00,13,17.50
2015,08,07,00,14,17.50
2015,08,07,00,15,17.50
2015,08,07,00,16,17.50
2015,08,07,00,17,17.50
2015,08,07,00,18,17.50
2015,08,07,00,19,17.50
2015,08,07,00,20,17.50
2015,08,07,00,21,17.50
2015,08,07,00,22,17.50
2015,08,07,00,23,17.40
2015,08,07,00,24,17.40
2015,08,07,00,25,17.40
2015,08,07,00,26,17.40
2015,08,07,00,27,17.40
2015,08,07,00,28,17.40
2015,08,07,00,29,17.40
2015,08,07,00,30,17.40
2015,08,07,00,31,17.40
2015,08,07,00,32,17.40
2015,08,07,00,33,17.40
2015,08,07,00,34,17.40
2015,08,07,00,35,17.40
2015,08,07,00,36,17.40
2015,08,07,00,37,17.40
2015,08,07,00,38,17.40
2015,08,07,00,39,17.40
2015,08,07,00,40,17.40
2015,08,07,00,41,17.40
2015,08,07,00,42,17.40
2015,08,07,00,43,17.40
2015,08,07,00,44,17.40
2015,08,07,00,45,17.40
2015,08,07,00,46,17.40
2015,08,07,00,47,17.40
2015,08,07,00,48,17.40
2015,08,07,00,49,17.40
2015,08,07,00,50,17.40
2015,08,07,00,51,17.40
2015,08,07,00,52,17.40
2015,08,07,00,53,17.30
2015,08,07,00,54,17.30
2015,08,07,00,55,17.30
2015,08,07,00,56,17.30
2015,08,07,00,57,17.30
2015,08,07,00,58,17.30
2015,08,07,00,59,17.30
2015,08,07,01,00,17.30
2015,08,07,01,01,17.30
2015,08,07,01,02,17.30
2015,08,07,01,03,17.30
2015,08,07,01,04,17.30
2015,08,07,01,05,17.30
2015,08,07,01,06,17.30
2015,08,07,01,07,17.30
2015,08,07,01,08,17.20
2015,08,07,01,09,17.20
2015,08,07,01,10,17.20
2015,08,07,01,11,17.20
2015,08,07,01,12,17.20
2015,08,07,01,13,17.20
2015,08,07,01,14,17.20
2015,08,07,01,15,17.20
2015,08,07,01,16,17.20
2015,08,07,01,17,17.20
2015,08,07,01,18,17.10
2015,08,07,01,19,17.10
2015,08,07,01,20,17.10
2015,08,07,01,21,17.10
2015,08,07,01,22,17.10
2015,08,07,01,23,17.10
2015,08,07,01,24,17.10
2015,08,07,01,25,17.00
2015,08,07,01,26,17.00
2015,08,07,01,27,17.00
2015,08,07,01,28,17.00
2015,08,07,01,29,16.90
2015,08,07,01,30,16.90
2015,08,07,01,31,16.90
2015,08,07,01,32,16.90
2015,08,07,01,33,16.90
2015,08,07,01,34,16.90
2015,08,07,01,35,16.90
2015,08,07,01,36,16.80
2015,08,07,01,37,16.80
2015,08,07,01,38,16.80
2015,08,07,01,39,16.80
2015,08,07,01,40,16.80
2015,08,07,01,41,16.80
2015,08,07,01,42,16.70
2015,08,07,01,43,16.70
2015,08,07,01,44,16.70
2015,08,07,01,45,16.70
2015,08,07,01,46,16.70
2015,08,07,01,47,16.70
2015,08,07,01,48,16.70
2015,08,07,01,49,16.70
2015,08,07,01,50,16.70
2015,08,07,01,51,16.70
2015,08,07,01,52,16.60
2015,08,07,01,53,16.60
2015,08,07,01,54,16.60
2015,08,07,01,55,16.60
2015,08,07,01,56,16.60
2015,08,07,01,57,16.60
2015,08,07,01,58,16.60
2015,08,07,01,59,16.60
2015,08,07,02,00,16.60
2015,08,07,02,01,16.50
2015,08,07,02,02,16.50
2015,08,07,02,03,16.50
2015,08,07,02,04,16.50
2015,08,07,02,05,16.40
2015,08,07,02,06,16.40
2015,08,07,02,07,16.40
2015,08,07,02,08,16.40
2015,08,07,02,09,16.40
2015,08,07,02,10,16.40
2015,08,07,02,11,16.30
2015,08,07,02,12,16.30
2015,08,07,02,13,16.30
2015,08,07,02,14,16.30
2015,08,07,02,15,16.30
2015,08,07,02,16,16.30
2015,08,07,02,17,16.30
2015,08,07,02,18,16.30
2015,08,07,02,19,16.20
2015,08,07,02,20,16.20
2015,08,07,02,21,16.20
2015,08,07,02,22,16.20
2015,08,07,02,23,16.20
2015,08,07,02,24,16.20
2015,08,07,02,25,16.20
2015,08,07,02,26,16.20
2015,08,07,02,27,16.20
2015,08,07,02,28,16.10
2015,08,07,02,29,16.10
2015,08,07,02,30,16.10
2015,08,07,02,31,16.10
2015,08,07,02,32,16.10
2015,08,07,02,33,16.10
2015,08,07,02,34,16.10
2015,08,07,02,35,16.10
2015,08,07,02,36,16.10
2015,08,07,02,37,16.10
2015,08,07,02,38,16.10
2015,08,07,02,39,16.10
2015,08,07,02,40,16.10
2015,08,07,02,41,16.10
2015,08,07,02,42,16.10
2015,08,07,02,43,16.10
2015,08,07,02,44,16.10
2015,08,07,02,45,16.10
2015,08,07,02,46,16.10
2015,08,07,02,47,16.10
2015,08,07,02,48,16.10
2015,08,07,02,49,16.10
2015,08,07,02,50,16.10
2015,08,07,02,51,16.10
2015,08,07,02,52,16.10
2015,08,07,02,53,16.10
2015,08,07,02,54,16.10
2015,08,07,02,55,16.10
2015,08,07,02,56,16.10
2015,08,07,02,57,16.20
2015,08,07,02,58,16.20
2015,08,07,02,59,16.20
2015,08,07,03,00,16.20
2015,08,07,03,01,16.20
2015,08,07,03,02,16.20
2015,08,07,03,03,16.20
2015,08,07,03,04,16.20
2015,08,07,03,05,16.20
2015,08,07,03,06,16.20
2015,08,07,03,07,16.20
2015,08,07,03,08,16.20
2015,08,07,03,09,16.20
2015,08,07,03,10,16.20
2015,08,07,03,11,16.20
2015,08,07,03,12,16.20
2015,08,07,03,13,16.20
2015,08,07,03,14,16.20
2015,08,07,03,15,16.20
2015,08,07,03,16,16.20
2015,08,07,03,17,16.20
2015,08,07,03,18,16.20
2015,08,07,03,19,16.20
2015,08,07,03,20,16.20
2015,08,07,03,21,16.20
2015,08,07,03,22,16.20
2015,08,07,03,23,16.20
2015,08,07,03,24,16.20
2015,08,07,03,25,16.20
2015,08,07,03,26,16.20
2015,08,07,03,27,16.20
2015,08,07,03,28,16.20
2015,08,07,03,29,16.30
2015,08,07,03,30,16.20
2015,08,07,03,31,16.30
2015,08,07,03,32,16.30
2015,08,07,03,33,16.30
2015,08,07,03,34,16.30
2015,08,07,03,35,16.30
2015,08,07,03,36,16.30
2015,08,07,03,37,16.30
2015,08,07,03,38,16.30
2015,08,07,03,39,16.30
2015,08,07,03,40,16.30
2015,08,07,03,41,16.30
2015,08,07,03,42,16.30
2015,08,07,03,43,16.30
2015,08,07,03,44,16.30
2015,08,07,03,45,16.30
2015,08,07,03,46,16.30
2015,08,07,03,47,16.30
2015,08,07,03,48,16.30
2015,08,07,03,49,16.20
2015,08,07,03,50,16.30
2015,08,07,03,51,16.30
2015,08,07,03,52,16.30
2015,08,07,03,53,16.30
2015,08,07,03,54,16.20
2015,08,07,03,55,16.20
2015,08,07,03,56,16.20
2015,08,07,03,57,16.20
2015,08,07,03,58,16.20
2015,08,07,03,59,16.20
2015,08,07,04,00,16.20
2015,08,07,04,01,16.20
2015,08,07,04,02,16.30
2015,08,07,04,03,16.30
2015,08,07,04,04,16.20
2015,08,07,04,05,16.20
2015,08,07,04,06,16.30
2015,08,07,04,07,16.30
2015,08,07,04,08,16.30
2015,08,07,04,09,16.30
2015,08,07,04,10,16.30
2015,08,07,04,11,16.30
2015,08,07,04,12,16.30
2015,08,07,04,13,16.30
2015,08,07,04,14,16.30
2015,08,07,04,15,16.30
2015,08,07,04,16,16.30
2015,08,07,04,17,16.30
2015,08,07,04,18,16.30
2015,08,07,04,19,16.30
2015,08,07,04,20,16.30
2015,08,07,04,21,16.30
2015,08,07,04,22,16.40
2015,08,07,04,23,16.40
2015,08,07,04,24,16.40
2015,08,07,04,25,16.40
2015,08,07,04,26,16.40
2015,08,07,04,27,16.40
2015,08,07,04,28,16.40
2015,08,07,04,29,16.40
2015,08,07,04,30,16.40
2015,08,07,04,31,16.40
2015,08,07,04,32,16.40
2015,08,07,04,33,16.40
2015,08,07,04,34,16.40
2015,08,07,04,35,16.40
2015,08,07,04,36,16.40
2015,08,07,04,37,16.40
2015,08,07,04,38,16.40
2015,08,07,04,39,16.40
2015,08,07,04,40,16.40
2015,08,07,04,41,16.40
2015,08,07,04,42,16.40
2015,08,07,04,43,16.40
2015,08,07,04,44,16.40
2015,08,07,04,45,16.40
2015,08,07,04,46,16.40
2015,08,07,04,47,16.40
2015,08,07,04,48,16.40
2015,08,07,04,49,16.40
2015,08,07,04,50,16.30
2015,08,07,04,51,16.30
2015,08,07,04,52,16.30
2015,08,07,04,53,16.30
2015,08,07,04,54,16.30
2015,08,07,04,55,16.30
2015,08,07,04,56,16.30
2015,08,07,04,57,16.30
2015,08,07,04,58,16.30
2015,08,07,04,59,16.30
2015,08,07,05,00,16.30
2015,08,07,05,01,16.30
2015,08,07,05,02,16.30
2015,08,07,05,03,16.20
2015,08,07,05,04,16.20
2015,08,07,05,05,16.20
2015,08,07,05,06,16.20
2015,08,07,05,07,16.20
2015,08,07,05,08,16.10
2015,08,07,05,09,16.10
2015,08,07,05,10,16.10
2015,08,07,05,11,16.10
2015,08,07,05,12,16.10
2015,08,07,05,13,16.10
2015,08,07,05,14,16.00
2015,08,07,05,15,16.00
2015,08,07,05,16,16.00
2015,08,07,05,17,15.90
2015,08,07,05,18,15.90
2015,08,07,05,19,15.90
2015,08,07,05,20,15.90
2015,08,07,05,21,15.90
2015,08,07,05,22,15.90
2015,08,07,05,23,15.90
2015,08,07,05,24,15.90
2015,08,07,05,25,15.90
2015,08,07,05,26,15.90
2015,08,07,05,27,15.90
2015,08,07,05,28,15.80
2015,08,07,05,29,15.80
2015,08,07,05,30,15.80
2015,08,07,05,31,15.80
2015,08,07,05,32,15.80
2015,08,07,05,33,15.80
2015,08,07,05,34,15.80
2015,08,07,05,35,15.80
2015,08,07,05,36,15.80
2015,08,07,05,37,15.80
2015,08,07,05,38,15.80
2015,08,07,05,39,15.70
2015,08,07,05,40,15.70
2015,08,07,05,41,15.70
2015,08,07,05,42,15.70
2015,08,07,05,43,15.70
2015,08,07,05,44,15.70
2015,08,07,05,45,15.70
2015,08,07,05,46,15.60
2015,08,07,05,47,15.60
2015,08,07,05,48,15.60
2015,08,07,05,49,15.60
2015,08,07,05,50,15.60
2015,08,07,05,51,15.60
2015,08,07,05,52,15.60
2015,08,07,05,53,15.60
2015,08,07,05,54,15.60
2015,08,07,05,55,15.60
2015,08,07,05,56,15.60
2015,08,07,05,57,15.50
2015,08,07,05,58,15.50
2015,08,07,05,59,15.50
2015,08,07,06,00,15.50
2015,08,07,06,01,15.50
2015,08,07,06,02,15.50
2015,08,07,06,03,15.50
2015,08,07,06,04,15.50
2015,08,07,06,05,15.40
2015,08,07,06,06,15.40
2015,08,07,06,07,15.40
2015,08,07,06,08,15.40
2015,08,07,06,09,15.40
2015,08,07,06,10,15.40
2015,08,07,06,11,15.40
2015,08,07,06,12,15.40
2015,08,07,06,13,15.40
2015,08,07,06,14,15.40
2015,08,07,06,15,15.40
2015,08,07,06,16,15.40
2015,08,07,06,17,15.40
2015,08,07,06,18,15.40
2015,08,07,06,19,15.40
2015,08,07,06,20,15.40
2015,08,07,06,21,15.40
2015,08,07,06,22,15.40
2015,08,07,06,23,15.40
2015,08,07,06,24,15.40
2015,08,07,06,25,15.40
2015,08,07,06,26,15.40
2015,08,07,06,27,15.40
2015,08,07,06,28,15.40
2015,08,07,06,29,15.40
2015,08,07,06,30,15.50
2015,08,07,06,31,15.50
2015,08,07,06,32,15.50
2015,08,07,06,33,15.50
2015,08,07,06,34,15.60
2015,08,07,06,35,15.60
2015,08,07,06,36,15.60
2015,08,07,06,37,15.60
2015,08,07,06,38,15.70
2015,08,07,06,39,15.70
2015,08,07,06,40,15.70
2015,08,07,06,41,15.70
2015,08,07,06,42,15.70
2015,08,07,06,43,15.80
2015,08,07,06,44,15.80
2015,08,07,06,45,15.80
2015,08,07,06,46,15.80
2015,08,07,06,47,15.90
2015,08,07,06,48,15.90
2015,08,07,06,49,15.90
2015,08,07,06,50,15.90
2015,08,07,06,51,15.90
2015,08,07,06,52,15.90
2015,08,07,06,53,16.00
2015,08,07,06,54,16.00
2015,08,07,06,55,16.00
2015,08,07,06,56,16.00
2015,08,07,06,57,16.10
2015,08,07,06,58,16.10
2015,08,07,06,59,16.10
2015,08,07,07,00,16.20
2015,08,07,07,01,16.20
2015,08,07,07,02,16.30
2015,08,07,07,03,16.30
2015,08,07,07,04,16.30
2015,08,07,07,05,16.30
2015,08,07,07,06,16.30
2015,08,07,07,07,16.30
2015,08,07,07,08,16.40
2015,08,07,07,09,16.40
2015,08,07,07,10,16.40
2015,08,07,07,11,16.40
2015,08,07,07,12,16.40
2015,08,07,07,13,16.40
2015,08,07,07,14,16.40
2015,08,07,07,15,16.50
2015,08,07,07,16,16.50
2015,08,07,07,17,16.50
2015,08,07,07,18,16.50
2015,08,07,07,19,16.50
2015,08,07,07,20,16.50
2015,08,07,07,21,16.50
2015,08,07,07,22,16.50
2015,08,07,07,23,16.50
2015,08,07,07,24,16.50
2015,08,07,07,25,16.50
2015,08,07,07,26,16.50
2015,08,07,07,27,16.50
2015,08,07,07,28,16.60
2015,08,07,07,29,16.60
2015,08,07,07,30,16.60
2015,08,07,07,31,16.60
2015,08,07,07,32,16.60
2015,08,07,07,33,16.60
2015,08,07,07,34,16.60
2015,08,07,07,35,16.60
2015,08,07,07,36,16.60
2015,08,07,07,37,16.60
2015,08,07,07,38,16.70
2015,08,07,07,39,16.70
2015,08,07,07,40,16.70
2015,08,07,07,41,16.70
2015,08,07,07,42,16.70
2015,08,07,07,43,16.80
2015,08,07,07,44,16.80
2015,08,07,07,45,16.80
2015,08,07,07,46,16.80
2015,08,07,07,47,16.90
2015,08,07,07,48,16.90
2015,08,07,07,49,16.90
2015,08,07,07,50,16.90
2015,08,07,07,51,16.90
2015,08,07,07,52,16.90
2015,08,07,07,53,16.90
2015,08,07,07,54,16.90
2015,08,07,07,55,16.90
2015,08,07,07,56,16.90
2015,08,07,07,57,16.90
2015,08,07,07,58,17.00
2015,08,07,07,59,17.00
2015,08,07,08,00,17.00
2015,08,07,08,01,17.00
2015,08,07,08,02,17.00
2015,08,07,08,03,17.10
2015,08,07,08,04,17.10
2015,08,07,08,05,17.10
2015,08,07,08,06,17.20
2015,08,07,08,07,17.20
2015,08,07,08,08,17.30
2015,08,07,08,09,17.30
2015,08,07,08,10,17.40
2015,08,07,08,11,17.40
2015,08,07,08,12,17.40
2015,08,07,08,13,17.50
2015,08,07,08,14,17.50
2015,08,07,08,15,17.60
2015,08,07,08,16,17.60
2015,08,07,08,17,17.70
2015,08,07,08,18,17.70
2015,08,07,08,19,17.80
2015,08,07,08,20,17.90
2015,08,07,08,21,17.90
2015,08,07,08,22,18.00
2015,08,07,08,23,18.10
2015,08,07,08,24,18.10
2015,08,07,08,25,18.10
2015,08,07,08,26,18.10
2015,08,07,08,27,18.10
2015,08,07,08,28,18.20
2015,08,07,08,29,18.20
2015,08,07,08,30,18.20
2015,08,07,08,31,18.30
2015,08,07,08,32,18.30
2015,08,07,08,33,18.30
2015,08,07,08,34,18.30
2015,08,07,08,35,18.40
2015,08,07,08,36,18.50
2015,08,07,08,37,18.60
2015,08,07,08,38,18.60
2015,08,07,08,39,18.60
2015,08,07,08,40,18.70
2015,08,07,08,41,18.70
2015,08,07,08,42,18.70
2015,08,07,08,43,18.80
2015,08,07,08,44,18.80
2015,08,07,08,45,18.80
2015,08,07,08,46,18.90
2015,08,07,08,47,19.00
2015,08,07,08,48,19.00
2015,08,07,08,49,19.10
2015,08,07,08,50,19.10
2015,08,07,08,51,19.10
2015,08,07,08,52,19.10
2015,08,07,08,53,19.10
2015,08,07,08,54,19.10
2015,08,07,08,55,19.20
2015,08,07,08,56,19.30
2015,08,07,08,57,19.30
2015,08,07,08,58,19.30
2015,08,07,08,59,19.20
2015,08,07,09,00,19.20
2015,08,07,09,01,19.10
2015,08,07,09,02,19.10
2015,08,07,09,03,19.10
2015,08,07,09,04,19.00
2015,08,07,09,05,19.00
2015,08,07,09,06,19.00
2015,08,07,09,07,19.10
2015,08,07,09,08,19.20
2015,08,07,09,09,19.20
2015,08,07,09,10,19.30
2015,08,07,09,11,19.30
2015,08,07,09,12,19.30
2015,08,07,09,13,19.20
2015,08,07,09,14,19.20
2015,08,07,09,15,19.10
2015,08,07,09,16,19.10
2015,08,07,09,17,19.10
2015,08,07,09,18,19.10
2015,08,07,09,19,19.10
2015,08,07,09,20,19.10
2015,08,07,09,21,19.20
2015,08,07,09,22,19.20
2015,08,07,09,23,19.20
2015,08,07,09,24,19.20
2015,08,07,09,25,19.20
2015,08,07,09,26,19.20
2015,08,07,09,27,19.20
2015,08,07,09,28,19.20
2015,08,07,09,29,19.20
2015,08,07,09,30,19.20
2015,08,07,09,31,19.20
2015,08,07,09,32,19.20
2015,08,07,09,33,19.20
2015,08,07,09,34,19.30
2015,08,07,09,35,19.30
2015,08,07,09,36,19.40
2015,08,07,09,37,19.40
2015,08,07,09,38,19.40
2015,08,07,09,39,19.40
2015,08,07,09,40,19.40
2015,08,07,09,41,19.40
2015,08,07,09,42,19.40
2015,08,07,09,43,19.50
2015,08,07,09,44,19.60
2015,08,07,09,45,19.70
2015,08,07,09,46,19.80
2015,08,07,09,47,19.90
2015,08,07,09,48,20.00
2015,08,07,09,49,20.10
2015,08,07,09,50,20.10
2015,08,07,09,51,20.20
2015,08,07,09,52,20.20
2015,08,07,09,53,20.20
2015,08,07,09,54,20.20
2015,08,07,09,55,20.20
2015,08,07,09,56,20.20
2015,08,07,09,57,20.20
2015,08,07,09,58,20.20
2015,08,07,09,59,20.20
2015,08,07,10,00,20.20
2015,08,07,10,01,20.20
2015,08,07,10,02,20.30
2015,08,07,10,03,20.40
2015,08,07,10,04,20.40
2015,08,07,10,05,20.40
2015,08,07,10,06,20.40
2015,08,07,10,07,20.40
2015,08,07,10,08,20.40
2015,08,07,10,09,20.40
2015,08,07,10,10,20.40
2015,08,07,10,11,20.50
2015,08,07,10,12,20.50
2015,08,07,10,13,20.60
2015,08,07,10,14,20.60
2015,08,07,10,15,20.60
2015,08,07,10,16,20.50
2015,08,07,10,17,20.40
2015,08,07,10,18,20.30
2015,08,07,10,19,20.30
2015,08,07,10,20,20.30
2015,08,07,10,21,20.30
2015,08,07,10,22,20.30
2015,08,07,10,23,20.30
2015,08,07,10,24,20.40
2015,08,07,10,25,20.40
2015,08,07,10,26,20.40
2015,08,07,10,27,20.40
2015,08,07,10,28,20.50
2015,08,07,10,29,20.50
2015,08,07,10,30,20.50
2015,08,07,10,31,20.50
2015,08,07,10,32,20.40
2015,08,07,10,33,20.40
2015,08,07,10,34,20.40
2015,08,07,10,35,20.40
2015,08,07,10,36,20.40
2015,08,07,10,37,20.40
2015,08,07,10,38,20.40
2015,08,07,10,39,20.40
2015,08,07,10,40,20.40
2015,08,07,10,41,20.40
2015,08,07,10,42,20.30
2015,08,07,10,43,20.30
2015,08,07,10,44,20.20
2015,08,07,10,45,20.10
2015,08,07,10,46,20.10
2015,08,07,10,47,20.10
2015,08,07,10,48,20.10
2015,08,07,10,49,20.00
2015,08,07,10,50,20.00
2015,08,07,10,51,19.90
2015,08,07,10,52,19.90
2015,08,07,10,53,19.90
2015,08,07,10,54,19.90
2015,08,07,10,55,19.80
2015,08,07,10,56,19.80
2015,08,07,10,57,19.90
2015,08,07,10,58,19.90
2015,08,07,10,59,19.90
2015,08,07,11,00,19.90
2015,08,07,11,01,19.90
2015,08,07,11,02,19.90
2015,08,07,11,03,19.90
2015,08,07,11,04,19.90
2015,08,07,11,05,19.90
2015,08,07,11,06,19.90
2015,08,07,11,07,19.90
2015,08,07,11,08,19.90
2015,08,07,11,09,19.90
2015,08,07,11,10,19.90
2015,08,07,11,11,19.90
2015,08,07,11,12,19.80
2015,08,07,11,13,19.80
2015,08,07,11,14,19.70
2015,08,07,11,15,19.70
2015,08,07,11,16,19.70
2015,08,07,11,17,19.70
2015,08,07,11,18,19.70
2015,08,07,11,19,19.60
2015,08,07,11,20,19.60
2015,08,07,11,21,19.70
2015,08,07,11,22,19.70
2015,08,07,11,23,19.70
2015,08,07,11,24,19.70
2015,08,07,11,25,19.70
2015,08,07,11,26,19.70
2015,08,07,11,27,19.70
2015,08,07,11,28,19.80
2015,08,07,11,29,19.90
2015,08,07,11,30,19.90
2015,08,07,11,31,19.90
2015,08,07,11,32,20.00
2015,08,07,11,33,20.00
2015,08,07,11,34,20.00
2015,08,07,11,35,20.00
2015,08,07,11,36,20.00
2015,08,07,11,37,20.00
2015,08,07,11,38,20.00
2015,08,07,11,39,20.10
2015,08,07,11,40,20.20
2015,08,07,11,41,20.30
2015,08,07,11,42,20.30
2015,08,07,11,43,20.40
2015,08,07,11,44,20.50
2015,08,07,11,45,20.60
2015,08,07,11,46,20.70
2015,08,07,11,47,20.80
2015,08,07,11,48,20.90
2015,08,07,11,49,21.10
2015,08,07,11,50,21.30
2015,08,07,11,51,21.50
2015,08,07,11,52,21.70
2015,08,07,11,53,21.80
2015,08,07,11,54,21.80
2015,08,07,11,55,21.70
2015,08,07,11,56,21.60
2015,08,07,11,57,21.50
2015,08,07,11,58,21.40
2015,08,07,11,59,21.30
2015,08,07,12,00,21.30
2015,08,07,12,01,21.40
2015,08,07,12,02,21.30
2015,08,07,12,03,21.30
2015,08,07,12,04,21.30
2015,08,07,12,05,21.20
2015,08,07,12,06,21.20
2015,08,07,12,07,21.10
2015,08,07,12,08,21.10
2015,08,07,12,09,21.00
2015,08,07,12,10,21.00
2015,08,07,12,11,20.90
2015,08,07,12,12,20.90
2015,08,07,12,13,20.80
2015,08,07,12,14,20.80
2015,08,07,12,15,20.80
2015,08,07,12,16,20.80
2015,08,07,12,17,20.80
2015,08,07,12,18,20.80
2015,08,07,12,19,20.70
2015,08,07,12,20,20.70
2015,08,07,12,21,20.70
2015,08,07,12,22,20.70
2015,08,07,12,23,20.70
2015,08,07,12,24,20.70
2015,08,07,12,25,20.70
2015,08,07,12,26,20.60
2015,08,07,12,27,20.60
2015,08,07,12,28,20.60
2015,08,07,12,29,20.60
2015,08,07,12,30,20.60
2015,08,07,12,31,20.70
2015,08,07,12,32,20.70
2015,08,07,12,33,20.70
2015,08,07,12,34,20.70
2015,08,07,12,35,20.70
2015,08,07,12,36,20.80
2015,08,07,12,37,20.80
2015,08,07,12,38,20.80
2015,08,07,12,39,20.70
2015,08,07,12,40,20.70
2015,08,07,12,41,20.80
2015,08,07,12,42,20.80
2015,08,07,12,43,20.80
2015,08,07,12,44,20.80
2015,08,07,12,45,20.80
2015,08,07,12,46,20.80
2015,08,07,12,47,20.90
2015,08,07,12,48,20.90
2015,08,07,12,49,20.80
2015,08,07,12,50,20.80
2015,08,07,12,51,20.80
2015,08,07,12,52,20.80
2015,08,07,12,53,20.80
2015,08,07,12,54,20.80
2015,08,07,12,55,20.70
2015,08,07,12,56,20.70
2015,08,07,12,57,20.70
2015,08,07,12,58,20.70
2015,08,07,12,59,20.70
2015,08,07,13,00,20.80
2015,08,07,13,01,20.80
2015,08,07,13,02,20.80
2015,08,07,13,03,20.80
2015,08,07,13,04,20.80
2015,08,07,13,05,20.90
2015,08,07,13,06,20.90
2015,08,07,13,07,20.90
2015,08,07,13,08,20.90
2015,08,07,13,09,20.90
2015,08,07,13,10,20.80
2015,08,07,13,11,20.80
2015,08,07,13,12,20.80
2015,08,07,13,13,20.90
2015,08,07,13,14,20.90
2015,08,07,13,15,21.00
2015,08,07,13,16,21.00
2015,08,07,13,17,21.10
2015,08,07,13,18,21.10
2015,08,07,13,19,21.10
2015,08,07,13,20,21.10
2015,08,07,13,21,21.20
2015,08,07,13,22,21.20
2015,08,07,13,23,21.30
2015,08,07,13,24,21.30
2015,08,07,13,25,21.30
2015,08,07,13,26,21.40
2015,08,07,13,27,21.40
2015,08,07,13,28,21.40
2015,08,07,13,29,21.40
2015,08,07,13,30,21.40
2015,08,07,13,31,21.40
2015,08,07,13,32,21.40
2015,08,07,13,33,21.30
2015,08,07,13,34,21.40
2015,08,07,13,35,21.40
2015,08,07,13,36,21.40
2015,08,07,13,37,21.40
2015,08,07,13,38,21.40
2015,08,07,13,39,21.50
2015,08,07,13,40,21.60
2015,08,07,13,41,21.70
2015,08,07,13,42,21.70
2015,08,07,13,43,21.70
2015,08,07,13,44,21.70
2015,08,07,13,45,21.70
2015,08,07,13,46,21.60
2015,08,07,13,47,21.60
2015,08,07,13,48,21.50
2015,08,07,13,49,21.50
2015,08,07,13,50,21.50
2015,08,07,13,51,21.40
2015,08,07,13,52,21.30
2015,08,07,13,53,21.30
2015,08,07,13,54,21.30
2015,08,07,13,55,21.30
2015,08,07,13,56,21.30
2015,08,07,13,57,21.30
2015,08,07,13,58,21.30
2015,08,07,13,59,21.30
2015,08,07,14,00,21.30
2015,08,07,14,01,21.30
2015,08,07,14,02,21.30
2015,08,07,14,03,21.30
2015,08,07,14,04,21.30
2015,08,07,14,05,21.40
2015,08,07,14,06,21.40
2015,08,07,14,07,21.50
2015,08,07,14,08,21.50
2015,08,07,14,09,21.60
2015,08,07,14,10,21.60
2015,08,07,14,11,21.70
2015,08,07,14,12,21.70
2015,08,07,14,13,21.70
2015,08,07,14,14,21.70
2015,08,07,14,15,21.70
2015,08,07,14,16,21.70
2015,08,07,14,17,21.70
2015,08,07,14,18,21.70
2015,08,07,14,19,21.70
2015,08,07,14,20,21.60
2015,08,07,14,21,21.60
2015,08,07,14,22,21.50
2015,08,07,14,23,21.50
2015,08,07,14,24,21.40
2015,08,07,14,25,21.40
2015,08,07,14,26,21.50
2015,08,07,14,27,21.50
2015,08,07,14,28,21.50
2015,08,07,14,29,21.50
2015,08,07,14,30,21.50
2015,08,07,14,31,21.50
2015,08,07,14,32,21.50
2015,08,07,14,33,21.50
2015,08,07,14,34,21.50
2015,08,07,14,35,21.50
2015,08,07,14,36,21.60
2015,08,07,14,37,21.60
2015,08,07,14,38,21.60
2015,08,07,14,39,21.50
2015,08,07,14,40,21.50
2015,08,07,14,41,21.50
2015,08,07,14,42,21.50
2015,08,07,14,43,21.40
2015,08,07,14,44,21.40
2015,08,07,14,45,21.40
2015,08,07,14,46,21.40
2015,08,07,14,47,21.30
2015,08,07,14,48,21.30
2015,08,07,14,49,21.20
2015,08,07,14,50,21.20
2015,08,07,14,51,21.10
2015,08,07,14,52,21.10
2015,08,07,14,53,21.10
2015,08,07,14,54,21.10
2015,08,07,14,55,21.00
2015,08,07,14,56,21.00
2015,08,07,14,57,20.90
2015,08,07,14,58,20.90
2015,08,07,14,59,20.80
2015,08,07,15,00,20.80
2015,08,07,15,01,20.80
2015,08,07,15,02,20.80
2015,08,07,15,03,20.70
2015,08,07,15,04,20.70
2015,08,07,15,05,20.60
2015,08,07,15,06,20.50
2015,08,07,15,07,20.40
2015,08,07,15,08,20.30
2015,08,07,15,09,20.30
2015,08,07,15,10,20.30
2015,08,07,15,11,20.20
2015,08,07,15,12,20.20
2015,08,07,15,13,20.20
2015,08,07,15,14,20.10
2015,08,07,15,15,20.10
2015,08,07,15,16,20.00
2015,08,07,15,17,19.90
2015,08,07,15,18,19.80
2015,08,07,15,19,19.70
2015,08,07,15,20,19.60
2015,08,07,15,21,19.60
2015,08,07,15,22,19.50
2015,08,07,15,23,19.40
2015,08,07,15,24,19.40
2015,08,07,15,25,19.40
2015,08,07,15,26,19.40
2015,08,07,15,27,19.30
2015,08,07,15,28,19.30
2015,08,07,15,29,19.40
2015,08,07,15,30,19.40
2015,08,07,15,31,19.40
2015,08,07,15,32,19.50
2015,08,07,15,33,19.50
2015,08,07,15,34,19.50
2015,08,07,15,35,19.60
2015,08,07,15,36,19.70
2015,08,07,15,37,19.70
2015,08,07,15,38,19.80
2015,08,07,15,39,19.80
2015,08,07,15,40,19.90
2015,08,07,15,41,19.90
2015,08,07,15,42,20.00
2015,08,07,15,43,20.00
2015,08,07,15,44,20.10
2015,08,07,15,45,20.10
2015,08,07,15,46,20.10
2015,08,07,15,47,20.10
2015,08,07,15,48,20.10
2015,08,07,15,49,20.20
2015,08,07,15,50,20.10
2015,08,07,15,51,20.10
2015,08,07,15,52,20.20
2015,08,07,15,53,20.20
2015,08,07,15,54,20.20
2015,08,07,15,55,20.20
2015,08,07,15,56,20.20
2015,08,07,15,57,20.30
2015,08,07,15,58,20.30
2015,08,07,15,59,20.30
2015,08,07,16,00,20.30
2015,08,07,16,01,20.30
2015,08,07,16,02,20.30
2015,08,07,16,03,20.30
2015,08,07,16,04,20.30
2015,08,07,16,05,20.20
2015,08,07,16,06,20.10
2015,08,07,16,07,20.00
2015,08,07,16,08,19.90
2015,08,07,16,09,19.90
2015,08,07,16,10,19.80
2015,08,07,16,11,19.80
2015,08,07,16,12,19.80
2015,08,07,16,13,19.80
2015,08,07,16,14,19.80
2015,08,07,16,15,19.80
2015,08,07,16,16,19.80
2015,08,07,16,17,19.80
2015,08,07,16,18,19.80
2015,08,07,16,19,19.70
2015,08,07,16,20,19.70
2015,08,07,16,21,19.70
2015,08,07,16,22,19.70
2015,08,07,16,23,19.70
2015,08,07,16,24,19.60
2015,08,07,16,25,19.60
2015,08,07,16,26,19.60
2015,08,07,16,27,19.50
2015,08,07,16,28,19.50
2015,08,07,16,29,19.50
2015,08,07,16,30,19.50
2015,08,07,16,31,19.50
2015,08,07,16,32,19.60
2015,08,07,16,33,19.50
2015,08,07,16,34,19.50
2015,08,07,16,35,19.50
2015,08,07,16,36,19.50
2015,08,07,16,37,19.50
2015,08,07,16,38,19.50
2015,08,07,16,39,19.50
2015,08,07,16,40,19.50
2015,08,07,16,41,19.50
2015,08,07,16,42,19.60
2015,08,07,16,43,19.60
2015,08,07,16,44,19.70
2015,08,07,16,45,19.70
2015,08,07,16,46,19.70
2015,08,07,16,47,19.70
2015,08,07,16,48,19.70
2015,08,07,16,49,19.70
2015,08,07,16,50,19.70
2015,08,07,16,51,19.70
2015,08,07,16,52,19.70
2015,08,07,16,53,19.80
2015,08,07,16,54,19.80
2015,08,07,16,55,19.80
2015,08,07,16,56,19.90
2015,08,07,16,57,20.00
2015,08,07,16,58,20.10
2015,08,07,16,59,20.10
2015,08,07,17,00,20.20
2015,08,07,17,01,20.20
2015,08,07,17,02,20.30
2015,08,07,17,03,20.30
2015,08,07,17,04,20.30
2015,08,07,17,05,20.30
2015,08,07,17,06,20.30
2015,08,07,17,07,20.30
2015,08,07,17,08,20.20
2015,08,07,17,09,20.20
2015,08,07,17,10,20.20
2015,08,07,17,11,20.20
2015,08,07,17,12,20.20
2015,08,07,17,13,20.20
2015,08,07,17,14,20.30
2015,08,07,17,15,20.30
2015,08,07,17,16,20.20
2015,08,07,17,17,20.20
2015,08,07,17,18,20.30
2015,08,07,17,19,20.30